This demonstration page uses our WeatherBlox Daily Observations layout. Learn more.

Left ArrowRight Arrow

53.62937, 11.41316

Hourly Observations for March 3, 2018

Temp ( °F °C ) Dew Point ( °F °C ) Humidity (%) Winds ( mph kmh ) Pressure ( in mb ) Visibility ( mi km ) Precip ( " mm )
6:50 am 06:50 Mostly Clear 7 -14 3 -16 85 85 ENE 8 13 29.74 1007 7 11 N/A
7:20 am 07:20 Mostly Sunny 7 -14 3 -16 85 85 E 7 11 29.74 1007 7 11 N/A
7:50 am 07:50 Mostly Sunny 7 -14 3 -16 85 85 ENE 7 11 29.74 1007 7 11 N/A
8:20 am 08:20 Mostly Sunny 7 -14 3 -16 85 85 ENE 8 13 29.74 1007 7 11 N/A
8:50 am 08:50 Mostly Sunny 9 -13 3 -16 78 78 ENE 9 15 29.74 1007 7 11 N/A
9:20 am 09:20 Mostly Sunny 14 -10 5 -15 67 67 E 9 15 29.74 1007 7 11 N/A
9:50 am 09:50 Mostly Sunny 16 -9 7 -14 67 67 E 9 15 29.74 1007 7 11 N/A
10:20 am 10:20 Mostly Sunny 16 -9 7 -14 67 67 E 9 15 29.74 1007 7 11 N/A
10:50 am 10:50 Mostly Sunny 19 -7 9 -13 63 63 E 8 13 29.74 1007 7 11 N/A
11:20 am 11:20 Mostly Sunny 21 -6 9 -13 58 58 E 9 15 29.74 1007 7 11 N/A
11:50 am 11:50 Mostly Sunny 21 -6 9 -13 58 58 E 10 17 29.74 1007 7 11 N/A
12:20 pm 12:20 Mostly Sunny 23 -5 10 -12 58 58 E 13 20 29.74 1007 7 11 N/A
12:50 pm 12:50 Mostly Sunny 23 -5 10 -12 58 58 E 12 19 29.74 1007 7 11 N/A
1:20 pm 13:20 Mostly Sunny 25 -4 10 -12 54 54 E 10 17 29.71 1006 7 11 N/A
1:50 pm 13:50 Mostly Sunny 25 -4 12 -11 59 59 E 10 17 29.71 1006 7 11 N/A
2:20 pm 14:20 Mostly Sunny 27 -3 12 -11 54 54 E 10 17 29.71 1006 7 11 N/A
2:50 pm 14:50 Mostly Sunny 27 -3 12 -11 54 54 E 13 20 29.71 1006 7 11 N/A
3:20 pm 15:20 Mostly Sunny 27 -3 12 -11 54 54 E 10 17 29.71 1006 7 11 N/A
3:50 pm 15:50 Mostly Sunny 27 -3 12 -11 54 54 E 14 22 29.71 1006 7 11 N/A
4:20 pm 16:20 Mostly Sunny 27 -3 12 -11 54 54 E 14 22 29.71 1006 7 11 N/A
4:50 pm 16:50 Mostly Sunny 27 -3 12 -11 54 54 E 14 22 29.71 1006 7 11 N/A
5:20 pm 17:20 Mostly Sunny 25 -4 12 -11 59 59 E 13 20 29.71 1006 7 11 N/A
5:50 pm 17:50 Mostly Sunny 25 -4 12 -11 59 59 E 12 19 29.68 1005 7 11 N/A
6:20 pm 18:20 Mostly Clear 23 -5 12 -11 63 63 E 9 15 29.71 1006 7 11 N/A

Powered by AerisWeather